Nanoose Bay, British Columbia

Past 24 Hour Conditions

Date / Time
(PDT)
Conditions Temp
(°F)
Humidity
(%)
Dew Point
(°F)
Wind
(mph)
Pressure
(inches)
Visibility
(miles)
25 October 2014
9:00 N/A 45   92 43 NW 6 N/A N/A
8:00 N/A 45   92 43 WNW 9 N/A N/A
7:00 N/A 46 93 44 NW 5 N/A N/A
6:00 N/A 46 93 44 W 8 N/A N/A
5:00 N/A 47 93 45 WNW 7 N/A N/A
4:00 N/A 47 93 45 W 6 N/A N/A
3:00 N/A 47 91 45 WSW 2 N/A N/A
2:00 N/A 48 90 45 W 7 N/A N/A
1:00 N/A 49 85 44 calm N/A N/A
00:00 N/A 49 84 44 WNW 5 N/A N/A
24 October 2014
23:00 N/A 48 85 44 W 9 N/A N/A
22:00 N/A 48 83 44 WNW 12 N/A N/A
21:00 N/A 48 91 45 W 6 N/A N/A
20:00 N/A 48 91 45 calm N/A N/A
19:00 N/A 49 89 46 NNE 2 N/A N/A
18:00 N/A 50 87 46 ENE 2 N/A N/A
17:00 N/A 51 81 46 ENE 2 N/A N/A
16:00 N/A 52   76 45 ENE 3 N/A N/A
15:00 N/A 51 77 45 ESE 6 N/A N/A
14:00 N/A 51 78 44 SE 15 N/A N/A
13:00 N/A 51 79 45 ESE 12 N/A N/A
12:00 N/A 51 81 45 E 9 N/A N/A
11:00 N/A 50 83 45 ESE 8 N/A N/A
10:00 N/A 48 88 45 ENE 5 N/A N/A
9:00 N/A 46 93 44 ENE 2 N/A N/A
N/A Not available
↑ Highest temperature
↓ Lowest temperature

If you require additional historical weather information, please visit Climate Data Online.

Date modified: